Location: Byszew
(52.1813°N, 19.2693°E)
Time: 05:08:56
(UTC+00:00)

AO-91 - Visible Passes

Search period start: 26 June 2022 00:00
Search period end: 06 July 2022 00:00
Orbit: 450 x 799 km, 97.7° (Epoch: 25 June)

Date Brightness Start Highest point End Pass type
(mag) Time Alt. Az. Time Alt. Az. Time Alt. Az.
26 Jun ? 20:25:57 10° ENE 20:27:23 12° E 20:28:47 10° ESE visible
26 Jun ? 22:00:36 10° N 22:04:11 61° WNW 22:06:30 19° SSW visible
27 Jun ? 20:43:46 10° NE 20:46:19 18° E 20:48:06 13° SE visible
27 Jun ? 22:19:28 10° N 22:22:49 38° WNW 22:25:22 14° SW visible
28 Jun ? 21:02:04 10° NE 21:05:10 28° E 21:06:58 18° SE visible
28 Jun ? 22:38:27 10° N 22:41:24 25° WNW 22:44:13 10° WSW visible
29 Jun ? 21:20:34 10° NNE 21:23:58 45° E 21:25:49 22° SSE visible
29 Jun ? 22:57:37 10° NNW 22:59:55 17° WNW 23:02:10 10° WSW visible
30 Jun ? 21:39:12 10° NNE 21:42:42 76° ESE 21:44:41 23° S visible
30 Jun ? 23:17:13 10° NW 23:18:24 11° NW 23:19:34 10° WNW visible
01 Jul ? 20:23:41 10° ENE 20:24:35 11° E 20:25:28 10° ESE visible
01 Jul ? 21:57:55 10° N 22:01:23 64° WNW 22:03:32 20° SSW visible
02 Jul ? 20:41:10 10° NE 20:43:28 17° E 20:45:07 13° SE visible
02 Jul ? 22:16:45 10° N 22:20:00 39° WNW 22:22:22 16° SW visible
03 Jul ? 20:59:23 10° NE 21:02:18 26° E 21:03:57 18° SE visible
03 Jul ? 22:35:42 10° N 22:38:34 25° WNW 22:41:13 11° WSW visible
04 Jul ? 21:17:48 10° NNE 21:21:05 41° E 21:22:48 23° SSE visible
04 Jul ? 22:54:48 10° NNW 22:57:05 17° WNW 22:59:21 10° WSW visible
05 Jul ? 21:36:23 10° NNE 21:39:47 71° ESE 21:41:38 25° S visible
05 Jul ? 23:14:20 10° NW 23:15:34 12° WNW 23:16:48 10° WNW visible
